Location: *
(43.4667°N, 11.6833°E)
Time: 22:07:39
(UTC+00:00)

Cosmos 1315 Rocket - Pass Details

Date: 19 July 2019
Orbit: 530 x 569 km, 81.2° (Epoch: 20 August)

Event Time Altitude Azimuth Distance (km) Brightness Sun altitude
Rises 22:21:15 0° 359° (N) 2,692 7.6 -24.4°
Reaches altitude 10° 22:23:36 10° 10° (N) 1,801 6.3 -24.5°
Enters shadow 22:26:43 30° 60° (ENE) 985 4.2 -24.6°
